Weather History for EDDF - October, 2013

Change the Weather History Date:

Wednesday, October 9, 2013

  Actual Average Record
Temperature  
Mean Temperature 60 °F -  
Max Temperature 64 °F 53 °F 71 °F (1997)
Min Temperature 53 °F 41 °F 35 °F (2002)
Degree Days  
Heating Degree Days 6    
Growing Degree Days 10 (Base 50)    
Moisture  
Dew Point 54 °F    
Average Humidity 87    
Maximum Humidity 100    
Minimum Humidity 62    
Precipitation  
Precipitation 0.08 in - - ()
Sea Level Pressure  
Sea Level Pressure 30.11 in    
Wind  
Wind Speed 5 mph ()    
Max Wind Speed 13 mph    
Max Gust Speed 25 mph    
Visibility 6.6 miles    
Events Rain    
Averages and records for this station are not official NWS values.
T = Trace of Precipitation, MM = Missing Value Source: Averaged Metar Reports

Daily Weather History Graph

Daily Weather History Graph

Search for Another Location

Airport or City:

Trip Planner

Search our weather history database for the weather conditions in past years. The results will help you decide how hot, cold, wet, or windy it might be!

Date:

Astronomy

Oct. 09, 2013 Rise Set
Actual Time 7:38 AM CEST 6:46 PM CEST
Civil Twilight 7:05 AM CEST 7:19 PM CEST
Nautical Twilight 6:28 AM CEST 7:56 PM CEST
Astronomical Twilight 5:50 AM CEST 8:34 PM CEST
Moon 12:40 PM CEST (10/9) 9:41 PM CEST (10/9)
Length of Visible Light 12h 13m
Length of Day
11h 08m
Waxing Crescent, 22% of the Moon is Illuminated
Oct 9
Waxing Crescent
Oct 12
First Quarter
Oct 19
Full
Oct 27
Last Quarter
Nov 3
New

Hourly Weather History & Observations

Time (CEST) Temp. Dew Point Humidity Pressure Visibility Wind Dir Wind Speed Gust Speed Precip Events Conditions
12:00 AM 58 °F 53 °F 77% 30.28 in 12 mi ENE 2.2 mph - -   Mostly Cloudy
12:20 AM 57.2 °F 53.6 °F 88% 30.27 in 6.2 mi North 2.3 mph - N/A   Mostly Cloudy
12:50 AM 57.2 °F 53.6 °F 88% 30.27 in 6.2 mi SSW 2.3 mph - N/A   Mostly Cloudy
1:00 AM 58 °F 53 °F 78% 30.27 in 12 mi SSW 2.2 mph - -   Mostly Cloudy
1:20 AM 57.2 °F 53.6 °F 88% 30.24 in 6.2 mi Variable 1.2 mph - N/A   Mostly Cloudy
1:50 AM 57.2 °F 53.6 °F 88% 30.24 in 6.2 mi SSW 2.3 mph - N/A   Mostly Cloudy
2:00 AM 57 °F 53 °F 83% 30.26 in 12 mi SSW 2.2 mph - -   Mostly Cloudy
2:20 AM 57.2 °F 53.6 °F 88% 30.24 in 6.2 mi South 2.3 mph - N/A   Mostly Cloudy
2:50 AM 57.2 °F 53.6 °F 88% 30.24 in 6.2 mi South 2.3 mph - N/A   Mostly Cloudy
3:00 AM 57 °F 53 °F 81% 30.26 in 12 mi South 2.2 mph - -   Mostly Cloudy
3:20 AM 55.4 °F 53.6 °F 94% 30.24 in 6.2 mi Variable 2.3 mph - N/A   Mostly Cloudy
3:50 AM 55.4 °F 53.6 °F 94% 30.24 in 6.2 mi South 1.2 mph - N/A   Mostly Cloudy
4:00 AM 56 °F 53 °F 86% 30.25 in 12 mi South 2.2 mph - -   Mostly Cloudy
4:20 AM 55.4 °F 53.6 °F 94% 30.24 in 6.2 mi SSE 2.3 mph - N/A   Mostly Cloudy
4:50 AM 55.4 °F 55.4 °F 100% 30.21 in 6.2 mi South 3.5 mph - N/A   Mostly Cloudy
5:20 AM 57.2 °F 53.6 °F 88% 30.21 in 6.2 mi South 4.6 mph - N/A   Mostly Cloudy
5:50 AM 55.4 °F 53.6 °F 94% 30.21 in 6.2 mi South 5.8 mph - N/A   Mostly Cloudy
6:00 AM 56 °F 53 °F 86% 30.21 in 9 mi South 4.5 mph - -   Overcast
6:20 AM 55.4 °F 53.6 °F 94% 30.21 in 6.2 mi South 3.5 mph - N/A   Overcast
6:50 AM 55.4 °F 53.6 °F 94% 30.21 in 6.2 mi South 5.8 mph - N/A   Overcast
7:00 AM 56 °F 53 °F 86% 30.21 in 8 mi South 4.5 mph - -   Overcast
7:20 AM 55.4 °F 53.6 °F 94% 30.18 in 6.2 mi SSW 6.9 mph - N/A   Mostly Cloudy
7:50 AM 55.4 °F 53.6 °F 94% 30.18 in 5.6 mi SSW 4.6 mph - N/A   Mostly Cloudy
8:00 AM 56 °F 53 °F 85% 30.20 in 6 mi SSW 4.5 mph - -   Mostly Cloudy
8:20 AM 55.4 °F 53.6 °F 94% 30.18 in 6.2 mi SSW 8.1 mph - N/A   Mostly Cloudy
8:50 AM 55.4 °F 53.6 °F 94% 30.18 in 6.2 mi SSW 6.9 mph - N/A   Mostly Cloudy
9:00 AM 56 °F 52 °F 83% 30.20 in 8 mi SSW 6.7 mph - -   Mostly Cloudy
9:20 AM 55.4 °F 53.6 °F 94% 30.18 in 6.2 mi South 4.6 mph - N/A   Mostly Cloudy
9:50 AM 57.2 °F 53.6 °F 88% 30.18 in 6.2 mi SW 5.8 mph - N/A   Mostly Cloudy
10:00 AM 56 °F 53 °F 86% 30.20 in 8 mi SW 6.7 mph - -   Mostly Cloudy
10:20 AM 57.2 °F 53.6 °F 88% 30.18 in 6.2 mi SW 6.9 mph - N/A   Mostly Cloudy
10:50 AM 57.2 °F 53.6 °F 88% 30.15 in - South 6.9 mph - N/A   Clear
11:20 AM 59.0 °F 53.6 °F 82% 30.15 in - SW 5.8 mph - N/A   Clear
11:50 AM 59.0 °F 53.6 °F 82% 30.15 in 6.2 mi SW 8.1 mph - N/A   Mostly Cloudy
12:00 PM 60 °F 53 °F 69% 30.16 in 9 mi SW 8.9 mph - -   Mostly Cloudy
12:20 PM 60.8 °F 53.6 °F 77% 30.15 in 6.2 mi SSW 8.1 mph - N/A   Mostly Cloudy
12:50 PM 60.8 °F 51.8 °F 72% 30.12 in 6.2 mi SW 9.2 mph - N/A   Mostly Cloudy
1:00 PM 61 °F 52 °F 65% 30.14 in 11 mi SW 8.9 mph - -   Mostly Cloudy
1:20 PM 60.8 °F 51.8 °F 72% 30.09 in 6.2 mi SSW 9.2 mph - N/A   Mostly Cloudy
1:50 PM 62.6 °F 51.8 °F 68% 30.09 in 6.2 mi SSW 10.4 mph - N/A   Mostly Cloudy
2:00 PM 62 °F 52 °F 62% 30.09 in 11 mi SSW 11.2 mph - -   Mostly Cloudy
2:20 PM 62.6 °F 51.8 °F 68% 30.06 in 6.2 mi SSW 10.4 mph - N/A   Mostly Cloudy
2:50 PM 62.6 °F 51.8 °F 68% 30.06 in 6.2 mi SSW 12.7 mph - N/A   Mostly Cloudy
3:20 PM 62.6 °F 51.8 °F 68% 30.04 in 6.2 mi SSW 10.4 mph - N/A   Mostly Cloudy
3:50 PM 62.6 °F 51.8 °F 68% 30.04 in 6.2 mi SSW 9.2 mph - N/A   Mostly Cloudy
4:20 PM 62.6 °F 51.8 °F 68% 30.01 in 6.2 mi South 8.1 mph - N/A Rain Light Rain
4:50 PM 59.0 °F 55.4 °F 88% 30.01 in 2.2 mi SW 10.4 mph - N/A Rain Rain
5:20 PM 57.2 °F 57.2 °F 100% 30.01 in 3.1 mi SSW 6.9 mph - N/A Rain Rain
5:50 PM 57.2 °F 57.2 °F 100% 29.98 in 2.8 mi South 11.5 mph 25.3 mph N/A Rain Rain
6:20 PM 57.2 °F 57.2 °F 100% 29.98 in 3.7 mi South 9.2 mph - N/A Rain Light Rain
6:50 PM 57.2 °F 57.2 °F 100% 29.95 in 3.7 mi South 6.9 mph 20.7 mph N/A   Mostly Cloudy
7:00 PM 57 °F 55 °F 90% 29.97 in 4 mi South 6.7 mph - - Rain Light Rain
7:20 PM 57.2 °F 57.2 °F 100% 29.98 in 3.7 mi South 9.2 mph - N/A   Mostly Cloudy
7:50 PM 57.2 °F 57.2 °F 100% 29.95 in 4.3 mi South 6.9 mph - N/A Rain Light Rain
8:00 PM 57 °F 55 °F 90% 29.96 in 4 mi South 6.7 mph - - Rain Light Rain
8:20 PM 57.2 °F 55.4 °F 94% 29.95 in 5.6 mi South 9.2 mph - N/A   Mostly Cloudy
8:50 PM 57.2 °F 55.4 °F 94% 29.92 in 6.2 mi South 9.2 mph - N/A   Mostly Cloudy
9:00 PM 57 °F 54 °F 87% 29.94 in 9 mi South 8.9 mph - - Rain Light Rain
9:20 PM 57.2 °F 55.4 °F 94% 29.92 in 6.2 mi SSW 11.5 mph - N/A Rain Light Rain
9:50 PM 55.4 °F 55.4 °F 100% 29.92 in 6.2 mi SSW 12.7 mph - N/A Rain Light Rain
10:00 PM 56 °F 54 °F 90% 29.92 in 6 mi SSW 13.4 mph - - Rain Light Rain
10:20 PM 57.2 °F 55.4 °F 94% 29.92 in 6.2 mi South 12.7 mph - N/A   Mostly Cloudy
10:50 PM 55.4 °F 53.6 °F 94% 29.92 in 3.7 mi West 6.9 mph - N/A Rain Rain
11:20 PM 55.4 °F 53.6 °F 94% 29.89 in 6.2 mi SW 5.8 mph - N/A Rain Light Rain
11:50 PM 53.6 °F 53.6 °F 100% 29.89 in 6.2 mi South 3.5 mph - N/A Rain Light Rain